Met observations

Date (UTC) Wind direction m/s kts. Vis. * Weather * Cloud * Temperature (°C) Dew point (°C) Air pressure (Hp)
26-09 15:44 4 08 VIS 10 km FEW 2500ft 9.6 4.5 1023.9
26-09 15:34 5 10 VIS 10 km FEW 2500ft 9.6 4.6 1023.9
26-09 15:24 5 10 VIS 10 km FEW 2500ft 9.6 4.0 1023.9
26-09 15:14 5 10 VIS 10 km FEW 2500ft 9.5 4.3 1023.9
26-09 15:04 5 10 VIS 10 km FEW 2500ft 9.6 4.6 1024.0
26-09 14:54 6 11 VIS 10 km FBL RA FEW 1600ft BKN 1800ft BKN 2200ft 9.4 4.5 1024.2
26-09 14:44 4 08 VIS 10 km FBL RA FEW 1600ft BKN 1800ft BKN 2200ft 9.4 4.2 1024.2
26-09 14:34 5 10 VIS 10 km FBL RA FEW 1600ft BKN 1800ft BKN 2200ft 9.5 4.5 1024.2
26-09 14:24 5 10 VIS 10 km FBL RA FEW 1600ft BKN 1800ft BKN 2200ft 9.4 3.8 1024.3
26-09 14:14 5 10 VIS 10 km FBL RA FEW 1600ft BKN 1800ft BKN 2200ft 9.6 3.9 1024.4
26-09 14:04 4 07 VIS 10 km FBL RA FEW 1600ft BKN 1800ft BKN 2200ft 9.6 3.5 1024.4
26-09 13:54 4 07 VIS 10 km FBL RA FEW 1600ft BKN 1800ft BKN 2200ft 9.5 3.6 1024.4
26-09 13:44 5 09 VIS 10 km FBL RA FEW 1600ft BKN 1800ft BKN 2200ft 9.4 2.9 1024.4
26-09 13:34 4 08 VIS 10 km FBL RA FEW 1600ft BKN 1800ft BKN 2200ft 9.5 3.6 1024.5
26-09 13:24 5 09 VIS 10 km FBL RA FEW 1600ft BKN 1800ft BKN 2200ft 9.4 2.9 1024.5
26-09 13:14 4 08 VIS 10 km FBL RA FEW 1600ft BKN 1800ft BKN 2200ft 9.3 2.7 1024.5
26-09 13:04 4 07 VIS 10 km FBL RA FEW 1600ft BKN 1800ft BKN 2200ft 9.4 3.4 1024.4
26-09 12:54 5 09 VIS 10 km FBL RA FEW 1600ft BKN 1800ft BKN 2200ft 9.0 3.5 1024.4
26-09 12:44 5 10 VIS 10 km FBL RA FEW 1600ft BKN 1800ft BKN 2200ft 9.2 3.6 1024.4
26-09 12:34 5 10 VIS 10 km FBL RA FEW 1600ft BKN 1800ft BKN 2200ft 9.4 3.8 1024.5
26-09 12:24 4 08 VIS 10 km FBL RA FEW 1600ft BKN 1800ft BKN 2200ft 9.2 3.8 1024.5
26-09 12:14 6 12 VIS 10 km FBL RA FEW 1600ft BKN 1800ft BKN 2200ft 9.2 3.9 1024.5
26-09 12:04 6 11 VIS 10 km FBL RA FEW 1600ft BKN 1800ft BKN 2200ft 9.0 3.4 1024.3
26-09 11:54 6 12 VIS 10 km FBL RA FEW 1600ft BKN 1800ft BKN 2200ft 9.0 3.7 1024.2
26-09 11:44 6 12 VIS 10 km FBL RA FEW 1600ft BKN 1800ft BKN 2200ft 8.8 3.7 1024.2
26-09 11:34 6 11 VIS 10 km FBL RA FEW 1600ft BKN 1800ft BKN 2200ft 8.7 3.5 1024.0
26-09 11:24 6 12 VIS 10 km FBL RA FEW 1600ft BKN 1800ft BKN 2200ft 8.7 3.9 1024.0
26-09 11:14 7 13 VIS 10 km FBL RA FEW 1600ft BKN 1800ft BKN 2200ft 8.4 3.7 1024.0
26-09 11:04 7 14 VIS 10 km FBL RA FEW 1600ft BKN 1800ft BKN 2200ft 8.4 3.7 1024.0
26-09 10:54 6 12 VIS 10 km FBL RA FEW 1600ft BKN 1800ft BKN 2200ft 8.7 4.1 1023.9
26-09 10:44 7 13 VIS 10 km FBL RA FEW 1600ft BKN 1800ft BKN 2200ft 8.5 3.7 1023.8
26-09 10:34 6 12 VIS 10 km FBL RA FEW 1600ft BKN 1800ft BKN 2200ft 8.5 3.7 1023.9
26-09 10:24 6 12 VIS 10 km FBL RA FEW 1600ft BKN 1800ft BKN 2200ft 8.6 3.9 1023.8
26-09 10:14 5 10 VIS 10 km FBL RA FEW 1600ft BKN 1800ft BKN 2200ft 8.3 3.7 1023.8
26-09 10:04 4 08 VIS 10 km FBL RA FEW 1600ft BKN 1800ft BKN 2200ft 8.1 3.8 1023.8
26-09 09:54 5 10 VIS 10 km FBL RA FEW 1600ft BKN 1800ft BKN 2200ft 8.0 4.0 1023.8
26-09 09:44 3 05 VIS 10 km FBL RA FEW 1600ft BKN 1800ft BKN 2200ft 8.0 4.5 1023.9
26-09 09:34 2 03 VIS 10 km FBL RA FEW 1600ft BKN 1800ft BKN 2200ft 7.7 4.5 1023.8
26-09 09:24 1 02 VIS 10 km FBL RA FEW 1600ft BKN 1800ft BKN 2200ft 7.4 4.7 1023.8
26-09 09:14 2 03 VIS 10 km FBL RA FEW 1600ft BKN 1800ft BKN 2200ft 7.3 4.5 1023.6
26-09 09:04 1 01 VIS 10 km FBL RA FEW 1600ft BKN 1800ft BKN 2200ft 6.8 4.5 1023.5
26-09 08:54 1 02 VIS 10 km FBL RA FEW 1600ft BKN 1800ft BKN 2200ft 6.1 4.8 1023.6
26-09 08:44 0 00 VIS 10 km FBL RA FEW 1600ft BKN 1800ft BKN 2200ft 5.8 4.6 1023.6
26-09 08:34 0 00 VIS 10 km FBL RA FEW 1600ft BKN 1800ft BKN 2200ft 5.7 4.5 1023.5
26-09 08:24 1 01 VIS 10 km FBL RA FEW 1600ft BKN 1800ft BKN 2200ft 5.2 3.9 1023.2
26-09 08:14 0 00 VIS 10 km FBL RA FEW 1600ft BKN 1800ft BKN 2200ft 5.0 4.1 1023.2
26-09 08:04 1 01 VIS 10 km FBL RA FEW 1600ft BKN 1800ft BKN 2200ft 4.5 3.5 1023.2
26-09 07:54 1 01 VIS 10 km FBL RA FEW 1600ft BKN 1800ft BKN 2200ft 4.6 3.8 1023.1
26-09 07:44 1 01 VIS 10 km FBL RA FEW 1600ft BKN 1800ft BKN 2200ft 4.2 3.1 1023.0
26-09 07:34 1 01 VIS 10 km FBL RA FEW 1600ft BKN 1800ft BKN 2200ft 4.6 3.3 1022.9
26-09 07:24 1 02 VIS 10 km FBL RA FEW 1600ft BKN 1800ft BKN 2200ft 5.3 4.0 1022.7
26-09 07:14 2 03 VIS 10 km FBL RA FEW 1600ft BKN 1800ft BKN 2200ft 5.3 4.1 1022.8
26-09 07:04 0 00 VIS 10 km FBL RA FEW 1600ft BKN 1800ft BKN 2200ft 5.2 4.1 1022.7
26-09 06:54 1 01 VIS 10 km FBL RA FEW 1600ft BKN 1800ft BKN 2200ft 5.2 3.9 1022.6
26-09 06:44 1 02 VIS 10 km FBL RA FEW 1600ft BKN 1800ft BKN 2200ft 5.4 4.1 1022.6
26-09 06:34 1 02 VIS 10 km FBL RA FEW 1600ft BKN 1800ft BKN 2200ft 5.2 4.0 1022.4
26-09 06:24 1 01 VIS 10 km FBL RA FEW 1600ft BKN 1800ft BKN 2200ft 5.1 3.8 1022.4
26-09 06:14 2 03 VIS 10 km FBL RA FEW 1600ft BKN 1800ft BKN 2200ft 5.3 3.9 1022.3
26-09 06:04 2 03 VIS 10 km FBL RA FEW 1600ft BKN 1800ft BKN 2200ft 5.4 4.1 1022.3
26-09 05:54 0 00 VIS 10 km FBL RA FEW 1600ft BKN 1800ft BKN 2200ft 5.4 4.0 1022.0
26-09 05:44 1 02 VIS 10 km FBL RA FEW 1600ft BKN 1800ft BKN 2200ft 5.4 3.8 1022.0
26-09 05:34 1 02 VIS 10 km FBL RA FEW 1600ft BKN 1800ft BKN 2200ft 5.4 3.7 1022.1
26-09 05:24 1 02 VIS 10 km FBL RA FEW 1600ft BKN 1800ft BKN 2200ft 5.3 3.7 1022.0
26-09 05:14 1 02 VIS 10 km FBL RA FEW 1600ft BKN 1800ft BKN 2200ft 5.4 3.8 1022.0
26-09 05:04 2 03 VIS 10 km FBL RA FEW 1600ft BKN 1800ft BKN 2200ft 5.0 3.8 1021.9
26-09 04:54 2 03 VIS 10 km FBL RA FEW 1600ft BKN 1800ft BKN 2200ft 4.0 2.6 1021.8
26-09 04:44 2 03 VIS 10 km FBL RA FEW 1600ft BKN 1800ft BKN 2200ft 5.3 3.2 1021.5
26-09 04:34 0 00 VIS 10 km FBL RA FEW 1600ft BKN 1800ft BKN 2200ft 5.3 3.2 1021.4
26-09 04:24 1 01 VIS 10 km FBL RA FEW 1600ft BKN 1800ft BKN 2200ft 5.0 3.4 1021.3
26-09 04:14 1 01 VIS 10 km FBL RA FEW 1600ft BKN 1800ft BKN 2200ft 4.9 3.1 1021.4
26-09 04:04 0 00 VIS 10 km FBL RA FEW 1600ft BKN 1800ft BKN 2200ft 4.3 2.7 1021.4
26-09 03:54 0 00 VIS 10 km FBL RA FEW 1600ft BKN 1800ft BKN 2200ft 4.6 3.1 1021.3
26-09 03:44 0 00 VIS 10 km FBL RA FEW 1600ft BKN 1800ft BKN 2200ft 4.1 2.8 1021.3
26-09 03:34 1 01 VIS 10 km FBL RA FEW 1600ft BKN 1800ft BKN 2200ft 3.4 1.9 1021.2
26-09 03:24 1 01 VIS 10 km FBL RA FEW 1600ft BKN 1800ft BKN 2200ft 4.1 2.7 1021.2
26-09 03:14 1 01 VIS 10 km FBL RA FEW 1600ft BKN 1800ft BKN 2200ft 3.6 2.2 1021.0
26-09 03:04 0 00 VIS 10 km FBL RA FEW 1600ft BKN 1800ft BKN 2200ft 3.5 2.0 1021.0
26-09 02:54 0 00 VIS 10 km FBL RA FEW 1600ft BKN 1800ft BKN 2200ft 3.5 2.4 1020.9
26-09 02:44 0 00 VIS 10 km FBL RA FEW 1600ft BKN 1800ft BKN 2200ft 3.1 1.9 1020.8
26-09 02:34 0 00 VIS 10 km FBL RA FEW 1600ft BKN 1800ft BKN 2200ft 3.2 1.3 1020.8
26-09 02:24 1 01 VIS 10 km FBL RA FEW 1600ft BKN 1800ft BKN 2200ft 3.1 1.5 1020.7
26-09 02:14 0 00 VIS 10 km FBL RA FEW 1600ft BKN 1800ft BKN 2200ft 3.6 2.3 1020.6
26-09 02:04 0 00 VIS 10 km FBL RA FEW 1600ft BKN 1800ft BKN 2200ft 3.6 2.2 1020.7
26-09 01:54 0 00 VIS 10 km FBL RA FEW 1600ft BKN 1800ft BKN 2200ft 4.0 2.6 1020.7
26-09 01:44 1 02 VIS 10 km FBL RA FEW 1600ft BKN 1800ft BKN 2200ft 4.1 2.6 1020.6
26-09 01:34 2 03 VIS 10 km FBL RA FEW 1600ft BKN 1800ft BKN 2200ft 3.6 2.3 1020.6
26-09 01:24 1 01 VIS 10 km FBL RA FEW 1600ft BKN 1800ft BKN 2200ft 4.0 2.4 1020.6
26-09 01:14 1 02 VIS 10 km FBL RA FEW 1600ft BKN 1800ft BKN 2200ft 3.8 2.6 1020.7
26-09 01:04 1 01 VIS 10 km FBL RA FEW 1600ft BKN 1800ft BKN 2200ft 3.6 2.5 1020.6
26-09 00:54 1 01 VIS 10 km FBL RA FEW 1600ft BKN 1800ft BKN 2200ft 3.6 2.0 1020.4
26-09 00:44 2 03 VIS 10 km FBL RA FEW 1600ft BKN 1800ft BKN 2200ft 4.2 2.7 1020.4
26-09 00:34 0 00 VIS 10 km FBL RA FEW 1600ft BKN 1800ft BKN 2200ft 4.5 2.7 1020.4
26-09 00:24 2 03 VIS 10 km FBL RA FEW 1600ft BKN 1800ft BKN 2200ft 4.9 3.3 1020.3
26-09 00:14 2 03 VIS 10 km FBL RA FEW 1600ft BKN 1800ft BKN 2200ft 4.6 3.0 1020.2
26-09 00:04 2 03 VIS 10 km FBL RA FEW 1600ft BKN 1800ft BKN 2200ft 4.8 3.3 1020.1
25-09 23:54 2 03 VIS 10 km FBL RA FEW 1600ft BKN 1800ft BKN 2200ft 4.6 3.0 1019.9
25-09 23:44 1 02 VIS 10 km FBL RA FEW 1600ft BKN 1800ft BKN 2200ft 4.7 3.1 1019.7
25-09 23:34 1 02 VIS 10 km FBL RA FEW 1600ft BKN 1800ft BKN 2200ft 4.5 3.2 1019.7
25-09 23:24 2 04 VIS 10 km FBL RA FEW 1600ft BKN 1800ft BKN 2200ft 4.1 2.7 1019.6
25-09 23:14 2 03 VIS 10 km FBL RA FEW 1600ft BKN 1800ft BKN 2200ft 4.7 2.9 1019.4
25-09 23:04 3 06 VIS 10 km FBL RA FEW 1600ft BKN 1800ft BKN 2200ft 4.7 3.0 1019.2
25-09 22:54 3 05 VIS 10 km FBL RA FEW 1600ft BKN 1800ft BKN 2200ft 5.5 3.4 1019.2
25-09 22:44 2 03 VIS 10 km FBL RA FEW 1600ft BKN 1800ft BKN 2200ft 4.9 3.0 1019.2
25-09 22:34 0 00 VIS 10 km FBL RA FEW 1600ft BKN 1800ft BKN 2200ft 4.4 3.0 1019.3
25-09 22:24 0 00 VIS 10 km FBL RA FEW 1600ft BKN 1800ft BKN 2200ft 4.8 3.0 1019.1
25-09 22:14 1 02 VIS 10 km FBL RA FEW 1600ft BKN 1800ft BKN 2200ft 5.1 3.1 1019.0
25-09 22:04 2 03 VIS 10 km FBL RA FEW 1600ft BKN 1800ft BKN 2200ft 5.0 2.9 1018.8
25-09 21:54 2 04 VIS 10 km FBL RA FEW 1600ft BKN 1800ft BKN 2200ft 5.2 2.9 1018.7
25-09 21:44 2 03 VIS 10 km FBL RA FEW 1600ft BKN 1800ft BKN 2200ft 5.4 3.0 1018.6
25-09 21:34 2 04 VIS 10 km FBL RA FEW 1600ft BKN 1800ft BKN 2200ft 5.3 2.7 1018.5
25-09 21:24 1 01 VIS 10 km FBL RA FEW 1600ft BKN 1800ft BKN 2200ft 5.8 2.9 1018.4
25-09 21:14 2 03 VIS 10 km FBL RA FEW 1600ft BKN 1800ft BKN 2200ft 5.6 2.7 1018.2
25-09 21:04 0 00 VIS 10 km FBL RA FEW 1600ft BKN 1800ft BKN 2200ft 6.3 2.9 1018.1
25-09 20:54 3 05 VIS 10 km FBL RA FEW 1600ft BKN 1800ft BKN 2200ft 6.4 3.3 1017.9
25-09 20:44 4 07 VIS 10 km FBL RA FEW 1600ft BKN 1800ft BKN 2200ft 6.3 3.3 1017.7
25-09 20:34 4 08 VIS 10 km FBL RA FEW 1600ft BKN 1800ft BKN 2200ft 6.2 3.4 1017.6
25-09 20:24 4 08 VIS 10 km FBL RA FEW 1600ft BKN 1800ft BKN 2200ft 6.4 3.4 1017.5
25-09 20:14 4 08 VIS 10 km FBL RA FEW 1600ft BKN 1800ft BKN 2200ft 6.6 3.5 1017.4
25-09 20:04 4 08 VIS 10 km FBL RA FEW 1600ft BKN 1800ft BKN 2200ft 6.5 3.5 1017.2
25-09 19:54 5 09 VIS 10 km FBL RA FEW 1600ft BKN 1800ft BKN 2200ft 6.5 3.7 1017.0
25-09 19:44 6 11 VIS 10 km FBL RA FEW 1600ft BKN 1800ft BKN 2200ft 6.5 4.2 1017.1
25-09 19:34 6 12 VIS 10 km FBL RA FEW 1600ft BKN 1800ft BKN 2200ft 6.5 4.1 1016.9
25-09 19:24 5 09 VIS 10 km FBL RA FEW 1600ft BKN 1800ft BKN 2200ft 6.6 4.0 1016.8
25-09 19:14 5 09 VIS 10 km FBL RA FEW 1600ft BKN 1800ft BKN 2200ft 6.6 4.2 1016.7
25-09 19:04 6 11 VIS 10 km FBL RA FEW 1600ft BKN 1800ft BKN 2200ft 6.8 4.3 1016.4
25-09 18:54 6 11 VIS 10 km FBL RA FEW 1600ft BKN 1800ft BKN 2200ft 6.7 4.5 1016.3
25-09 18:44 5 09 VIS 10 km FBL RA FEW 1600ft BKN 1800ft BKN 2200ft 6.7 4.7 1016.1
25-09 18:34 6 11 VIS 10 km FBL RA FEW 1600ft BKN 1800ft BKN 2200ft 6.7 4.8 1016.0
25-09 18:24 7 13 VIS 10 km FBL RA FEW 1600ft BKN 1800ft BKN 2200ft 7.0 4.5 1016.0
25-09 18:14 5 09 VIS 10 km FBL RA FEW 1600ft BKN 1800ft BKN 2200ft 7.4 4.4 1015.8
25-09 18:04 5 09 VIS 10 km FBL RA FEW 1600ft BKN 1800ft BKN 2200ft 7.4 4.3 1015.7
25-09 17:54 4 08 VIS 10 km FBL RA FEW 1600ft BKN 1800ft BKN 2200ft 7.5 4.2 1015.4
25-09 17:44 6 11 VIS 10 km FBL RA FEW 1600ft BKN 1800ft BKN 2200ft 7.5 4.3 1015.1
25-09 17:34 6 11 VIS 10 km FBL RA FEW 1600ft BKN 1800ft BKN 2200ft 7.5 4.3 1014.9
25-09 17:24 6 11 VIS 10 km FBL RA FEW 1600ft BKN 1800ft BKN 2200ft 7.5 4.3 1014.8
25-09 17:14 8 16 VIS 10 km FBL RA FEW 1600ft BKN 1800ft BKN 2200ft 7.4 4.0 1014.6
25-09 17:04 9 17 VIS 10 km FBL RA FEW 1600ft BKN 1800ft BKN 2200ft 7.4 4.1 1014.4
25-09 16:54 8 16 VIS 10 km FBL RA FEW 1600ft BKN 1800ft BKN 2200ft 7.2 4.4 1014.3
25-09 16:44 9 18 VIS 10 km FBL RA FEW 1600ft BKN 1800ft BKN 2200ft 7.3 4.5 1014.3
25-09 16:34 8 16 VIS 10 km FBL RA FEW 1600ft BKN 1800ft BKN 2200ft 7.4 4.5 1014.3
25-09 16:24 8 16 VIS 10 km FBL RA FEW 1600ft BKN 1800ft BKN 2200ft 7.2 4.8 1014.1
25-09 16:14 9 17 VIS 10 km FBL RA FEW 1600ft BKN 1800ft BKN 2200ft 7.7 4.9 1014.1
25-09 16:04 10 19 VIS 10 km FBL RA FEW 1600ft BKN 1800ft BKN 2200ft 8.1 4.8 1014.0

Met data is updated every half hour and is for information only.
* Visibility, weather and cloud values are updated during the airport’s service hours only.
Flight planning documentation is available on opmet.dmi.dk.
For meteorological abbreviations, click here